Content
SEND FEEDBACK

Daily
Averages
Monthly
Summary
United States of America

HUNTLEY, NEBRASKA


Home > North America > United States > Nebraska
Elevation: 1937 feet     Latitude: 40 05N     Longitude: 099 12W

WEATHER
 
SELECT A DAY
Number of Records: 440,550;   Date Range: 11/7/95 - 9/29/14
 
SHARE

PRINT THIS DATA

[ ← Previous Day ]
WEATHER ALMANAC - JANUARY 31, 2013
[ Next Day → ]
[ °C ]   °F
Weather ElementAverageHighLow
Temperature19.2 °F23.7 °F (3:55 am)12.7 °F (11:35 pm)
Dewpoint9.3 °F17.6 °F (2:35 am)1 °F (4:15 pm)
Humidity66.2 %87 % (1:35 am)44 % (4:15 pm)
Barometer30.14 in30.31 in (9:15 pm)29.87 in (12:35 am)
Wind Speed9.7 mph21.9 mph (10:15 am)
Wind Gust28.8 mph (12:35 pm)
Weather ElementAverage
Visibility10 mi
Wind DirectionWSW (254.7 °)

Weather ElementTotal
Precipitation---
Heating Degree Days46.8 (Base 65)
Averaged from 70 records on January 31, 2013
WEATHER CONDITIONS BREAKOUT
WIND DIRECTION BREAKOUT
WEATHER BY HOUR - JANUARY 31, 2013
[ °C ]   °F
Local TimeTemperatureDewpointHumidityBarometerVisibilityWind DirectionWind SpeedGust SpeedPrecipitationEventsConditions
12:35 AM20.7 °F16.0 °F82 %29.87 in10.0 miNW (320°)4.6 mphOvercast
12:55 AM21.7 °F16.7 °F81 %29.87 in10.0 miNorth (360°)9.2 mphMostly Cloudy
1:15 AM20.7 °F16.7 °F85 %29.87 in10.0 miNorth (10°)4.6 mphScattered Clouds
1:35 AM19.9 °F16.5 °F87 %29.87 in10.0 miNorth (350°)4.6 mphScattered Clouds
1:55 AM19.9 °F16.5 °F87 %29.88 in10.0 miNorth (350°)5.8 mphMostly Cloudy
2:15 AM22.1 °F17.2 °F82 %29.88 in10.0 miNorth (360°)6.9 mphOvercast
2:35 AM23.0 °F17.6 °F80 %29.90 in10.0 miNorth (360°)5.8 mphOvercast
2:55 AM23.0 °F17.1 °F78 %29.92 in10.0 miNorth (350°)3.5 mphOvercast
3:15 AM23.4 °F16.9 °F76 %29.92 in10.0 miNW (320°)3.5 mphOvercast
3:35 AM23.5 °F17.2 °F77 %29.93 in10.0 miCalmOvercast
3:55 AM23.7 °F16.5 °F74 %29.93 in10.0 miCalmOvercast
4:15 AM23.4 °F16.3 °F75 %29.93 in10.0 miNorth (360°)5.8 mphOvercast
4:35 AM23.4 °F17.1 °F77 %29.93 in10.0 miNorth (360°)5.8 mphOvercast
4:55 AM23.4 °F16.3 °F75 %29.94 in10.0 miNorth (360°)5.8 mphOvercast
5:15 AM23.0 °F16.3 °F76 %29.96 in10.0 miNorth (360°)6.9 mphOvercast
5:35 AM23.0 °F16.5 °F76 %29.97 in10.0 miNorth (350°)5.8 mphOvercast
5:55 AM23.0 °F17.1 °F78 %29.97 in10.0 miNorth (10°)5.8 mphOvercast
6:15 AM23.5 °F16.5 °F75 %29.97 in10.0 miNorth (350°)8.1 mphOvercast
6:35 AM23.5 °F16.7 °F75 %29.98 in10.0 miNorth (360°)6.9 mphOvercast
6:55 AM23.5 °F16.7 °F75 %30.00 in10.0 miNNW (340°)11.5 mph16.1 mphOvercast
7:15 AM23.7 °F16.7 °F75 %30.00 in10.0 miNNW (340°)13.8 mphOvercast
7:35 AM23.2 °F17.4 °F79 %30.02 in10.0 miNorth (350°)13.8 mph21.9 mphSnowLight Snow
7:55 AM22.1 °F17.4 °F82 %30.04 in10.0 miNorth (10°)10.4 mphOvercast
8:15 AM22.1 °F16.3 °F79 %30.06 in10.0 miNorth (360°)12.7 mphOvercast
8:35 AM21.9 °F15.1 °F75 %30.07 in10.0 miNorth (350°)10.4 mph17.3 mphOvercast
8:55 AM22.1 °F14.4 °F72 %30.10 in10.0 miNorth (350°)12.7 mph18.4 mphOvercast
9:15 AM20.7 °F13.1 °F73 %30.12 in10.0 miNorth (360°)18.4 mph24.2 mphOvercast
9:35 AM19.9 °F12.9 °F74 %30.15 in10.0 miNorth (360°)16.1 mph24.2 mphOvercast
9:55 AM19.4 °F11.1 °F70 %30.16 in10.0 miNorth (360°)19.6 mph23.0 mphOvercast
10:15 AM18.5 °F11.5 °F74 %30.19 in10.0 miNorth (10°)21.9 mphSnowLight Snow
10:35 AM16.9 °F10.2 °F75 %30.20 in10.0 miNorth (10°)17.3 mph23.0 mphOvercast
10:55 AM15.8 °F9.3 °F76 %30.22 in10.0 miNorth (10°)19.6 mphOvercast
11:15 AM16.5 °F8.6 °F71 %30.23 in10.0 miNorth (360°)13.8 mphScattered Clouds
11:35 AM18.1 °F8.6 °F66 %30.23 in10.0 miNNW (330°)18.4 mph25.3 mphScattered Clouds
11:55 AM18.5 °F7.0 °F61 %30.24 in10.0 miNNW (330°)19.6 mph27.6 mphScattered Clouds
12:15 PM19.0 °F4.6 °F54 %30.24 in10.0 miNNW (340°)20.7 mph27.6 mphClear
12:35 PM19.0 °F5.5 °F56 %30.24 in10.0 miNNW (340°)15.0 mph28.8 mphScattered Clouds
12:55 PM19.4 °F4.8 °F53 %30.24 in10.0 miNNW (330°)20.7 mph27.6 mphScattered Clouds
1:15 PM19.2 °F4.6 °F53 %30.24 in10.0 miNNW (330°)16.1 mph24.2 mphMostly Cloudy
1:35 PM19.4 °F5.0 °F54 %30.23 in10.0 miNNW (330°)19.6 mph24.2 mphMostly Cloudy
1:55 PM21.0 °F4.8 °F50 %30.23 in10.0 miNW (320°)16.1 mph21.9 mphScattered Clouds
2:15 PM20.3 °F3.4 °F48 %30.23 in10.0 miNorth (350°)17.3 mph23.0 mphMostly Cloudy
2:35 PM20.8 °F3.2 °F47 %30.23 in10.0 miNorth (350°)17.3 mph21.9 mphMostly Cloudy
2:55 PM20.3 °F3.6 °F48 %30.24 in10.0 miNorth (360°)15.0 mphOvercast
3:15 PM19.6 °F4.5 °F52 %30.25 in10.0 miNorth (360°)15.0 mph19.6 mphOvercast
3:35 PM19.4 °F3.9 °F51 %30.25 in10.0 miNNW (340°)13.8 mph18.4 mphOvercast
3:55 PM19.9 °F2.7 °F47 %30.25 in10.0 miNNW (340°)16.1 mph19.6 mphOvercast
4:15 PM19.9 °F1.0 °F44 %30.25 in10.0 miNNW (330°)15.0 mphOvercast
4:35 PM19.4 °F2.1 °F47 %30.25 in10.0 miNNW (330°)11.5 mph16.1 mphOvercast
4:55 PM19.4 °F3.2 °F49 %30.25 in10.0 miNNW (340°)9.2 mph17.3 mphOvercast
5:15 PM19.0 °F1.9 °F47 %30.25 in10.0 miNNW (340°)10.4 mphOvercast
5:35 PM18.7 °F1.4 °F47 %30.25 in10.0 miNNW (340°)10.4 mphOvercast
5:55 PM18.1 °F1.2 °F48 %30.27 in10.0 miNNW (340°)8.1 mphMostly Cloudy
6:15 PM16.9 °F1.2 °F50 %30.27 in10.0 miNNW (340°)5.8 mphScattered Clouds
6:35 PM15.8 °F2.3 °F55 %30.27 in10.0 miNorth (350°)4.6 mphClear
6:55 PM15.6 °F1.8 °F54 %30.28 in10.0 miNorth (360°)4.6 mphClear
7:15 PM13.3 °F3.7 °F66 %30.27 in10.0 miNE (50°)5.8 mphMostly Cloudy
7:35 PM14.9 °F4.5 °F63 %30.28 in10.0 miNE (40°)3.5 mphOvercast
7:55 PM14.0 °F4.1 °F65 %30.29 in10.0 miCalmOvercast
8:15 PM14.0 °F4.6 °F66 %30.29 in10.0 miNNE (30°)3.5 mphOvercast
8:35 PM14.0 °F3.6 °F63 %30.30 in10.0 miCalmMostly Cloudy
8:55 PM14.0 °F5.5 °F69 %30.30 in10.0 miENE (60°)4.6 mphOvercast
9:15 PM14.5 °F3.6 °F62 %30.31 in10.0 miCalmOvercast
9:35 PM13.8 °F4.5 °F66 %30.31 in10.0 miSE (140°)3.5 mphOvercast
9:55 PM14.0 °F5.0 °F67 %30.31 in10.0 miESE (110°)3.5 mphOvercast
10:15 PM14.4 °F3.6 °F62 %30.31 in10.0 miESE (110°)4.6 mphOvercast
10:35 PM14.2 °F2.5 °F60 %30.30 in10.0 miESE (110°)4.6 mphOvercast
10:55 PM13.8 °F3.9 °F65 %30.30 in10.0 miSSE (150°)3.5 mphMostly Cloudy
11:15 PM13.1 °F3.9 °F67 %30.30 in10.0 miSouth (170°)5.8 mphScattered Clouds
11:35 PM12.7 °F4.1 °F68 %30.30 in10.0 miSouth (180°)6.9 mphClear
Hourly data recorded from KHDE, located miles away from Huntley, Nebraska







STORIES FROM OUR PARTNERS